"2009-11-15 00:00:00",1417246,4.653,133.8,5.404,0.829,0.93,99.37642,-2.289,-1.202,93.7,0,109.4,13.66,-1.54,95.8
"2009-11-15 00:00:30",1417247,5.681,140.5,7.77,1.165,3.589,99.37529,-2.292,-1.035,93.9,0,109.4,13.66,-1.55,102.5
"2009-11-15 00:01:00",1417248,6.675,140.1,5.541,0.765,4.673,99.37585,-2.29,-1.021,93.9,0,109.4,13.66,-1.55,102.1
"2009-11-15 00:01:30",1417249,6.096,139.4,5.477,0.659,4.442,99.37698,-2.288,-1.027,93.9,0,109.4,13.66,-1.54,101.4
"2009-11-15 00:02:00",1417250,6.062,142.9,5.798,0.724,4.257,99.37501,-2.293,-1.021,93.9,0,109.4,13.66,-1.55,104.9
"2009-11-15 00:02:30",1417251,5.803,130,7.724,0.68,3.915,99.37613,-2.29,-1.024,94,0,109.4,13.66,-1.55,92.0
"2009-11-15 00:03:00",1417252,5.385,148.8,6.283,0.794,3.378,99.37501,-2.293,-1.031,93.9,0,109.5,13.66,-1.55,110.8
"2009-11-15 00:03:30",1417253,4.323,118.7,14.5,1.171,0.881,99.37444,-2.294,-1.119,93.9,0,109.4,13.66,-1.55,80.7
"2009-11-15 00:04:00",1417254,3.416,114.2,9.16,0.345,-0.859,99.37613,-2.29,-1.229,93.9,0,109.4,13.7,-1.55,76.2
"2009-11-15 00:04:30",1417255,5.851,125.4,8.04,1.369,1.872,99.37585,-2.29,-1.204,93.9,0,109.5,13.67,-1.55,87.4
"2009-11-15 00:05:00",1417256,7.598,139.4,3.741,0.933,4.267,99.37613,-2.29,-1.014,94.2,0,109.4,13.67,-1.55,101.4
"2009-11-15 00:05:30",1417257,7.781,146,5.612,0.564,4.779,99.37642,-2.289,-1.042,94.2,0,109.4,13.67,-1.54,108.0
"2009-11-15 00:06:00",1417258,7.862,129.1,6.714,0.724,4.63,99.37585,-2.29,-1.034,94.3,0,109.4,13.67,-1.55,91.1
"2009-11-15 00:06:30",1417259,7.285,137.5,5.061,0.487,4.724,99.37642,-2.289,-1.025,94.3,0,109.4,13.67,-1.54,99.5
"2009-11-15 00:07:00",1417260,7.31,137.6,3.129,0.501,4.221,99.3767,-2.288,-1.04,94.3,0,109.4,13.67,-1.54,99.6
"2009-11-15 00:07:30",1417261,7.436,137.6,4.347,0.513,4.069,99.37782,-2.285,-1.034,94.4,0,109.4,13.67,-1.54,99.6
"2009-11-15 00:08:00",1417262,7.401,137.7,3.839,0.508,3.901,99.38091,-2.277,-1.047,94.4,0,109.4,13.67,-1.53,99.7
"2009-11-15 00:08:30",1417263,7.387,138.4,4.614,0.511,3.829,99.37867,-2.283,-1.039,94.4,0,109.4,13.67,-1.54,100.4
"2009-11-15 00:09:00",1417264,7.245,139.6,4.86,0.442,3.833,99.37923,-2.282,-1.041,94.4,0,109.4,13.67,-1.54,101.6
"2009-11-15 00:09:30",1417265,7.332,137,5.003,0.376,3.733,99.38036,-2.279,-1.023,94.4,0,109.4,13.67,-1.53,99.0
"2009-11-15 00:10:00",1417266,6.964,136.5,4.779,0.384,3.626,99.3744,-2.294,-1.03,94.4,0,109.4,13.67,-1.55,98.5
"2009-11-15 00:10:30",1417267,6.916,134,4.486,0.379,3.678,99.36507,-2.318,-1.029,94.4,0,109.4,13.67,-1.57,96.0
"2009-11-15 00:11:00",1417268,7.159,134.4,3.56,0.352,3.416,99.35658,-2.339,-1.036,94.4,0,109.4,13.67,-1.60,96.4
"2009-11-15 00:11:30",1417269,7.427,130.6,3.913,0.566,3.236,99.35033,-2.355,-1.04,94.4,0,109.4,13.67,-1.61,92.6
"2009-11-15 00:12:00",1417270,7.277,130.2,4.009,0.569,3.206,99.34861,-2.36,-1.036,94.4,0,109.4,13.67,-1.62,92.2
"2009-11-15 00:12:30",1417271,7.405,128.6,3.498,0.51,3.414,99.34496,-2.369,-1.058,94.4,0,109.4,13.67,-1.63,90.6
"2009-11-15 00:13:00",1417272,7.626,130.1,3.369,0.477,3.214,99.3472,-2.363,-1.066,94.4,0,109.4,13.67,-1.62,92.1
"2009-11-15 00:13:30",1417273,7.649,129.1,3.95,0.406,3.225,99.3472,-2.363,-1.063,94.4,0,109.4,13.67,-1.62,91.1
"2009-11-15 00:14:00",1417274,7.528,129.3,4.191,0.373,3.296,99.34493,-2.369,-1.073,94.3,0,109.4,13.67,-1.63,91.3
"2009-11-15 00:14:30",1417275,7.703,130.7,4.231,0.363,3.334,99.32539,-2.419,-1.077,94.3,0,109.4,13.67,-1.68,92.7
"2009-11-15 00:15:00",1417276,7.576,130.4,4.058,0.307,3.413,99.31292,-2.451,-1.077,94.3,0,109.3,13.66,-1.71,92.4
"2009-11-15 00:15:30",1417277,7.351,129.8,3.803,0.344,3.144,99.31292,-2.451,-1.115,94.3,0,109.4,13.66,-1.71,91.8
"2009-11-15 00:16:00",1417278,7.071,127.6,3.977,0.631,3.416,99.31264,-2.451,-1.119,94.2,0,109.4,13.66,-1.71,89.6
"2009-11-15 00:16:30",1417279,7.365,129,3.333,0.589,3.209,99.31179,-2.454,-1.137,94.2,0,109.4,13.66,-1.71,91.0
"2009-11-15 00:17:00",1417280,6.73,125.7,5.033,1.038,2.475,99.31292,-2.451,-1.22,94.1,0,109.4,13.66,-1.71,87.7
"2009-11-15 00:17:30",1417281,6.577,123.6,5.506,1.087,2.238,99.30413,-2.473,-1.228,94.1,0,109.4,13.66,-1.73,85.6
"2009-11-15 00:18:00",1417282,6.297,125.1,5.352,1.118,1.618,99.28826,-2.514,-1.27,94,0,109.4,13.66,-1.77,87.1
"2009-11-15 00:18:30",1417283,6.729,126.8,4.998,1.044,2.712,99.2795,-2.536,-1.242,94.1,0,109.4,13.66,-1.79,88.8
"2009-11-15 00:19:00",1417284,6.664,131.6,5.85,1.038,3.015,99.2792,-2.537,-1.243,94.1,0,109.5,13.66,-1.79,93.6
"2009-11-15 00:19:30",1417285,7.349,132.2,3.585,0.75,4.016,99.27836,-2.539,-1.193,94.1,0,109.4,13.66,-1.80,94.2
"2009-11-15 00:20:00",1417286,7.026,131.7,4.025,0.884,3.537,99.28004,-2.534,-1.218,94,0,109.4,13.67,-1.79,93.7
"2009-11-15 00:20:30",1417287,7.139,129.9,5.435,0.891,3.225,99.28033,-2.534,-1.243,94,0,109.4,13.67,-1.79,91.9
"2009-11-15 00:21:00",1417288,6.909,129.3,5.238,0.592,3.74,99.28088,-2.532,-1.251,94,0,109.4,13.67,-1.79,91.3
"2009-11-15 00:21:30",1417289,7.371,134.7,4.116,0.562,3.873,99.27551,-2.546,-1.235,93.9,0,109.4,13.67,-1.80,96.7
"2009-11-15 00:22:00",1417290,7.656,136.4,3.75,0.506,3.827,99.26418,-2.575,-1.271,93.9,0,109.4,13.67,-1.83,98.4
"2009-11-15 00:22:30",1417291,7.691,136.2,3.871,0.451,3.854,99.25484,-2.599,-1.254,93.9,0,109.4,13.67,-1.86,98.2
"2009-11-15 00:23:00",1417292,7.706,139.7,3.809,0.523,4.053,99.24888,-2.614,-1.277,93.9,0,109.4,13.67,-1.87,101.7
"2009-11-15 00:23:30",1417293,7.56,135.1,3.825,0.664,3.592,99.24773,-2.617,-1.267,93.8,0,109.4,13.67,-1.87,97.1
"2009-11-15 00:24:00",1417294,7.438,133,5.742,0.488,3.72,99.24633,-2.62,-1.303,93.8,0,109.4,13.67,-1.88,95.0
"2009-11-15 00:24:30",1417295,7.226,133.2,4.181,0.574,3.74,99.24717,-2.618,-1.292,93.8,0,109.4,13.67,-1.88,95.2
"2009-11-15 00:25:00",1417296,7.295,133.5,3.844,0.453,3.48,99.24914,-2.613,-1.302,93.7,0,109.4,13.67,-1.87,95.5
"2009-11-15 00:25:30",1417297,7.418,132.3,5.663,0.647,3.351,99.24802,-2.616,-1.312,93.7,0,109.4,13.67,-1.87,94.3
"2009-11-15 00:26:00",1417298,7.086,127.4,3.943,0.49,3.336,99.24773,-2.617,-1.324,93.7,0,109.4,13.67,-1.87,89.4
"2009-11-15 00:26:30",1417299,7.009,123,4.511,0.597,3.348,99.24689,-2.619,-1.326,93.7,0,109.4,13.67,-1.88,85.0
"2009-11-15 00:27:00",1417300,6.37,121.7,8.07,0.823,2.872,99.24745,-2.618,-1.32,93.6,0,109.4,13.67,-1.87,83.7
"2009-11-15 00:27:30",1417301,6.401,123.3,6.091,0.874,2.497,99.24605,-2.621,-1.312,93.6,0,109.4,13.67,-1.88,85.3
"2009-11-15 00:28:00",1417302,5.35,116.8,7.546,1.047,0.337,99.2466,-2.62,-1.447,93.5,0,109.4,13.67,-1.88,78.8
"2009-11-15 00:28:30",1417303,5.147,114.5,9.82,1.194,0.626,99.24633,-2.62,-1.557,93.4,0,109.4,13.67,-1.88,76.5
"2009-11-15 00:29:00",1417304,5.952,118.1,5.962,0.919,3.14,99.24717,-2.618,-1.346,93.5,0,109.4,13.67,-1.88,80.1
"2009-11-15 00:29:30",1417305,6.41,126,3.883,0.508,3.674,99.24689,-2.619,-1.326,93.6,0,109.4,13.67,-1.88,88.0
"2009-11-15 00:30:00",1417306,6.548,129.7,4.919,0.405,3.799,99.2466,-2.62,-1.348,93.6,0,109.4,13.67,-1.88,91.7
"2009-11-15 00:30:30",1417307,6.125,123.9,6.818,0.751,3.399,99.24717,-2.618,-1.331,93.5,0,109.4,13.67,-1.88,85.9
"2009-11-15 00:31:00",1417308,5.86,122.7,5.677,1.048,2.33,99.24773,-2.617,-1.39,93.5,0,109.4,13.67,-1.87,84.7
"2009-11-15 00:31:30",1417309,4.773,113.7,6.491,1.075,1.232,99.24689,-2.619,-1.542,93.3,0,109.4,13.67,-1.88,75.7
"2009-11-15 00:32:00",1417310,4.701,113.6,7,1.053,0.901,99.24717,-2.618,-1.433,93.4,0,109.4,13.67,-1.88,75.6
"2009-11-15 00:32:30",1417311,5.844,117.8,7.085,1.203,2.543,99.24717,-2.618,-1.366,93.5,0,109.5,13.67,-1.88,79.8
"2009-11-15 00:33:00",1417312,6.96,124.4,5.125,0.542,3.75,99.24773,-2.617,-1.315,93.6,0,109.4,13.67,-1.87,86.4
"2009-11-15 00:33:30",1417313,7.132,120.6,4.634,0.747,3.558,99.24717,-2.618,-1.319,93.5,0,109.4,13.67,-1.88,82.6
"2009-11-15 00:34:00",1417314,6.983,123.6,5.432,0.697,3.578,99.24094,-2.634,-1.309,93.5,0,109.4,13.67,-1.89,85.6
"2009-11-15 00:34:30",1417315,7.172,116.4,3.857,0.666,3.651,99.23019,-2.662,-1.328,93.5,0,109.4,13.67,-1.92,78.4
"2009-11-15 00:35:00",1417316,6.874,118.3,4.582,0.841,3.199,99.2231,-2.68,-1.393,93.4,0,109.4,13.67,-1.94,80.3
"2009-11-15 00:35:30",1417317,5.357,108.9,4.972,1.131,1.083,99.21657,-2.696,-1.442,93.4,0,109.4,13.67,-1.95,70.9
"2009-11-15 00:36:00",1417318,6.471,111.8,6.197,1.082,2.215,99.21374,-2.703,-1.403,93.4,0,109.4,13.67,-1.96,73.8
"2009-11-15 00:36:30",1417319,6.127,119.5,4.559,1.196,2.507,99.21317,-2.705,-1.412,93.4,0,109.4,13.67,-1.96,81.5
"2009-11-15 00:37:00",1417320,6.871,127.3,4.659,0.637,3.508,99.21317,-2.705,-1.356,93.4,0,109.4,13.67,-1.96,89.3
"2009-11-15 00:37:30",1417321,6.651,121.4,5.453,0.666,3.557,99.21289,-2.706,-1.346,93.4,0,109.4,13.67,-1.96,83.4
"2009-11-15 00:38:00",1417322,6.284,116.3,5.121,0.944,2.448,99.21346,-2.704,-1.433,93.3,0,109.4,13.67,-1.96,78.3
"2009-11-15 00:38:30",1417323,5.909,116.7,5.984,1.222,1.938,99.21374,-2.703,-1.428,93.4,0,109.4,13.67,-1.96,78.7
"2009-11-15 00:39:00",1417324,7.071,116.2,4.798,0.337,3.678,99.21261,-2.706,-1.39,93.4,0,109.4,13.67,-1.96,78.2
"2009-11-15 00:39:30",1417325,6.746,112.6,7.685,1.253,2.569,99.21289,-2.706,-1.41,93.3,0,109.4,13.67,-1.96,74.6
"2009-11-15 00:40:00",1417326,6.776,110.4,5.006,1.027,2.809,99.2143,-2.702,-1.43,93.3,0,109.4,13.67,-1.96,72.4
"2009-11-15 00:40:30",1417327,6.812,111.4,6.248,0.938,3.044,99.21317,-2.705,-1.431,93.3,0,109.4,13.67,-1.96,73.4
"2009-11-15 00:41:00",1417328,6.514,111.1,5.279,0.981,2.733,99.21033,-2.712,-1.481,93.3,0,109.4,13.67,-1.97,73.1
"2009-11-15 00:41:30",1417329,6.78,109.6,6.791,1.123,2.727,99.2055,-2.724,-1.454,93.3,0,109.4,13.67,-1.98,71.6
"2009-11-15 00:42:00",1417330,7.374,112.2,5.084,0.74,3.514,99.19615,-2.748,-1.423,93.3,0,109.4,13.68,-2.01,74.2
"2009-11-15 00:42:30",1417331,7.192,107.6,5.706,0.672,3.567,99.18993,-2.764,-1.403,93.3,0,109.4,13.68,-2.02,69.6
"2009-11-15 00:43:00",1417332,7.388,104.8,3.499,0.685,3.445,99.1851,-2.776,-1.403,93.3,0,109.4,13.68,-2.03,66.8
"2009-11-15 00:43:30",1417333,6.941,108.8,4.165,0.789,3.342,99.18424,-2.779,-1.398,93.3,0,109.4,13.67,-2.04,70.8
"2009-11-15 00:44:00",1417334,6.966,110,4.195,0.692,3.19,99.18199,-2.784,-1.414,93.3,0,109.4,13.67,-2.04,72.0
"2009-11-15 00:44:30",1417335,6.664,112.5,4.067,0.662,3.084,99.18171,-2.785,-1.429,93.3,0,109.4,13.67,-2.04,74.5
"2009-11-15 00:45:00",1417336,6.545,109.2,5.023,0.421,3.065,99.18086,-2.787,-1.415,93.3,0,109.4,13.67,-2.04,71.2
"2009-11-15 00:45:30",1417337,6.093,105,4.581,0.925,2.385,99.18142,-2.786,-1.488,93.2,0,109.4,13.67,-2.04,67.0
"2009-11-15 00:46:00",1417338,5.324,98.9,5.756,1.194,0.69,99.18198,-2.784,-1.588,93.1,0,109.4,13.67,-2.04,60.9
"2009-11-15 00:46:30",1417339,5.048,95.9,4.944,1.162,0.809,99.18282,-2.782,-1.597,93.1,0,109.4,13.68,-2.04,57.9
"2009-11-15 00:47:00",1417340,5.28,97.2,7.265,1.059,2.099,99.18311,-2.781,-1.481,93.2,0,109.4,13.67,-2.04,59.2
"2009-11-15 00:47:30",1417341,5.702,105.7,3.608,0.71,3.582,99.18367,-2.78,-1.428,93.3,0,109.4,13.67,-2.04,67.7
"2009-11-15 00:48:00",1417342,6.175,105.5,4.518,0.831,3.491,99.18311,-2.781,-1.413,93.3,0,109.4,13.67,-2.04,67.5
"2009-11-15 00:48:30",1417343,6.061,105.7,5.53,1.103,2.623,99.18311,-2.781,-1.462,93.2,0,109.4,13.67,-2.04,67.7
"2009-11-15 00:49:00",1417344,5.342,101,5.409,1.037,2.081,99.18367,-2.78,-1.475,93.2,0,109.4,13.67,-2.04,63.0
"2009-11-15 00:49:30",1417345,4.858,100.9,6.881,1.216,1.351,99.18395,-2.779,-1.615,93.1,0,109.4,13.67,-2.04,62.9
"2009-11-15 00:50:00",1417346,4.353,96.7,3.931,1.122,0.467,99.18367,-2.78,-1.626,93.1,0,109.4,13.67,-2.04,58.7
"2009-11-15 00:50:30",1417347,4.784,103.9,6.385,1.171,1.731,99.18423,-2.779,-1.544,93.2,0,109.4,13.67,-2.04,65.9
"2009-11-15 00:51:00",1417348,5.24,111.9,8.11,0.803,3.03,99.18395,-2.779,-1.397,93.3,0,109.4,13.67,-2.04,73.9
"2009-11-15 00:51:30",1417349,5.103,109.9,8.37,0.799,3.026,99.18339,-2.781,-1.455,93.3,0,109.4,13.67,-2.04,71.9
"2009-11-15 00:52:00",1417350,5.186,99.9,5.583,1.002,2.305,99.18395,-2.779,-1.478,93.2,0,109.4,13.67,-2.04,61.9
"2009-11-15 00:52:30",1417351,4.779,99,6.324,1.085,1.318,99.18367,-2.78,-1.565,93.1,0,109.4,13.68,-2.04,61.0
"2009-11-15 00:53:00",1417352,4.511,100.7,5.957,1.227,1.286,99.18339,-2.781,-1.61,93.1,0,109.4,13.68,-2.04,62.7
"2009-11-15 00:53:30",1417353,4.892,109.7,6.223,1.181,1.52,99.1848,-2.777,-1.522,93.2,0,109.4,13.68,-2.03,71.7
"2009-11-15 00:54:00",1417354,4.876,117,5.987,1.099,2.489,99.18537,-2.776,-1.406,93.3,0,109.4,13.68,-2.03,79.0
"2009-11-15 00:54:30",1417355,5.368,122.3,3.402,0.626,3.309,99.18367,-2.78,-1.453,93.3,0,109.4,13.68,-2.04,84.3
"2009-11-15 00:55:00",1417356,4.943,119.9,6.62,1.025,2.389,99.18367,-2.78,-1.459,93.2,0,109.4,13.68,-2.04,81.9
"2009-11-15 00:55:30",1417357,4.171,115.4,9.95,1.116,1.316,99.18395,-2.779,-1.5,93.2,0,109.4,13.68,-2.04,77.4
"2009-11-15 00:56:00",1417358,4.373,107.7,7.378,1.131,1.798,99.18395,-2.779,-1.627,93,0,109.4,13.68,-2.04,69.7
"2009-11-15 00:56:30",1417359,3.91,112.5,7.866,1.12,1.412,99.18395,-2.779,-1.465,93.2,0,109.4,13.68,-2.04,74.5
"2009-11-15 00:57:00",1417360,4.459,98.9,6.846,1.125,1.324,99.18395,-2.779,-1.616,93,0,109.4,13.68,-2.04,60.9
"2009-11-15 00:57:30",1417361,5.268,106.2,4.823,0.88,3.097,99.18395,-2.779,-1.414,93.2,0,109.4,13.69,-2.04,68.2
"2009-11-15 00:58:00",1417362,4.819,108.1,4.788,1.052,2.812,99.18395,-2.779,-1.482,93.2,0,109.4,13.69,-2.04,70.1
"2009-11-15 00:58:30",1417363,4.734,106.7,5.953,1.002,2.615,99.18395,-2.779,-1.444,93.2,0,109.4,13.68,-2.04,68.7
"2009-11-15 00:59:00",1417364,4.054,101.2,5.61,1.096,0.497,99.18395,-2.779,-1.608,93,0,109.4,13.68,-2.04,63.2
"2009-11-15 00:59:30",1417365,4.746,106.8,7.547,1.129,1.762,99.18395,-2.779,-1.49,93.1,0,109.4,13.69,-2.04,68.8
"2009-11-15 01:00:00",1417366,4.866,105.1,7.277,1.047,1.751,99.18395,-2.779,-1.595,93,0,109.4,13.69,-2.04,67.1
"2009-11-15 01:00:30",1417367,4.884,102.6,6.542,1.108,2.359,99.18395,-2.779,-1.506,93.1,0,109.4,13.69,-2.04,64.6
"2009-11-15 01:01:00",1417368,5.178,114.2,2.822,0.831,3.111,99.18083,-2.787,-1.48,93.1,0,109.4,13.69,-2.05,76.2
"2009-11-15 01:01:30",1417369,4.541,107.3,7.535,1.118,2.173,99.16638,-2.824,-1.523,93.1,0,109.4,13.69,-2.08,69.3
"2009-11-15 01:02:00",1417370,4.595,110.9,5.522,1.136,1.58,99.15646,-2.849,-1.533,93,0,109.4,13.69,-2.11,72.9
"2009-11-15 01:02:30",1417371,4.174,107.5,5.955,1.155,0.117,99.15193,-2.861,-1.67,92.9,0,109.4,13.69,-2.12,69.5
"2009-11-15 01:03:00",1417372,4.773,112.5,6.722,1.213,1.385,99.14994,-2.866,-1.572,93,0,109.4,13.69,-2.12,74.5
"2009-11-15 01:03:30",1417373,5.254,116.7,5.672,1.033,2.276,99.14994,-2.866,-1.541,93,0,109.4,13.68,-2.12,78.7
"2009-11-15 01:04:00",1417374,5.99,118.9,4.339,0.508,3.395,99.14994,-2.866,-1.467,93.1,0,109.4,13.68,-2.12,80.9
"2009-11-15 01:04:30",1417375,5.527,116,5.605,1.023,2.499,99.14994,-2.866,-1.557,93,0,109.4,13.68,-2.12,78.0
"2009-11-15 01:05:00",1417376,5.966,118.2,3.892,0.659,2.908,99.14994,-2.866,-1.488,93,0,109.4,13.68,-2.12,80.2
"2009-11-15 01:05:30",1417377,5.398,114.4,5.326,1.135,1.873,99.14994,-2.866,-1.589,92.9,0,109.4,13.68,-2.12,76.4
"2009-11-15 01:06:00",1417378,5.855,115.4,4.901,1.09,1.795,99.14881,-2.869,-1.617,92.9,0,109.4,13.68,-2.13,77.4
"2009-11-15 01:06:30",1417379,5.937,112.6,5.128,1.191,1.833,99.13833,-2.896,-1.567,93,0,109.4,13.68,-2.15,74.6
"2009-11-15 01:07:00",1417380,6.037,111.9,5.898,0.993,2.387,99.13068,-2.915,-1.581,92.9,0,109.4,13.68,-2.17,73.9
"2009-11-15 01:07:30",1417381,6.064,117,5.385,1.074,2.208,99.12388,-2.932,-1.594,92.9,0,109.4,13.68,-2.19,79.0
"2009-11-15 01:08:00",1417382,6.422,118.7,3.097,0.806,3.145,99.12019,-2.942,-1.524,93,0,109.4,13.68,-2.20,80.7
"2009-11-15 01:08:30",1417383,6.59,123,3.431,0.541,3.233,99.1165,-2.951,-1.554,93,0,109.4,13.68,-2.21,85.0
"2009-11-15 01:09:00",1417384,6.675,118.8,5.366,0.491,3.369,99.11594,-2.953,-1.544,93,0,109.4,13.69,-2.21,80.8
"2009-11-15 01:09:30",1417385,6.009,114.4,5.386,0.573,3.196,99.11594,-2.953,-1.541,93,0,109.4,13.69,-2.21,76.4
"2009-11-15 01:10:00",1417386,6.197,117.6,4.648,0.623,2.846,99.11594,-2.953,-1.557,93,0,109.4,13.69,-2.21,79.6
"2009-11-15 01:10:30",1417387,6.384,114.7,5.782,0.502,2.959,99.11594,-2.953,-1.566,93,0,109.4,13.69,-2.21,76.7
"2009-11-15 01:11:00",1417388,6.528,118.3,3.683,0.257,2.836,99.11594,-2.953,-1.577,93,0,109.4,13.69,-2.21,80.3
"2009-11-15 01:11:30",1417389,6.337,117.5,5.036,0.506,2.785,99.11565,-2.953,-1.562,93.1,0,109.4,13.69,-2.21,79.5
"2009-11-15 01:12:00",1417390,6.13,119.2,5.227,0.49,2.976,99.11509,-2.955,-1.581,93.1,0,109.4,13.69,-2.21,81.2
"2009-11-15 01:12:30",1417391,6.343,120.3,4.596,0.486,3.418,99.10518,-2.98,-1.587,93.1,0,109.4,13.69,-2.24,82.3
"2009-11-15 01:13:00",1417392,6.315,119.1,3.947,0.494,4.075,99.09158,-3.015,-1.607,93.1,0,109.4,13.69,-2.27,81.1
"2009-11-15 01:13:30",1417393,6.528,120.5,5.445,0.703,4.398,99.08421,-3.033,-1.606,93.1,0,109.4,13.69,-2.29,82.5
"2009-11-15 01:14:00",1417394,6.603,121.2,5.225,0.672,3.649,99.08194,-3.039,-1.62,93.1,0,109.4,13.69,-2.30,83.2
"2009-11-15 01:14:30",1417395,6.389,117,5.705,0.732,3.559,99.08194,-3.039,-1.624,93.1,0,109.4,13.69,-2.30,79.0
"2009-11-15 01:15:00",1417396,6.574,113.1,3.626,0.356,-4.141,99.08194,-3.039,-1.641,93.1,0,109.4,13.69,-2.30,75.1
"2009-11-15 01:15:30",1417397,6.599,118.3,6.146,0.672,-5.628,99.08194,-3.039,-1.653,93.1,0,109.4,13.68,-2.30,80.3
"2009-11-15 01:16:00",1417398,6.341,113.8,3.606,0.788,-1.993,99.08194,-3.039,-1.648,93.2,0,109.4,13.68,-2.30,75.8
"2009-11-15 01:16:30",1417399,6.73,116.9,3.975,0.602,-0.57,99.08194,-3.039,-1.665,93.2,0,109.4,13.69,-2.30,78.9
"2009-11-15 01:17:00",1417400,7.264,120.6,3.052,0.516,1.035,99.07826,-3.049,-1.654,93.2,0,109.4,13.68,-2.31,82.6
"2009-11-15 01:17:30",1417401,6.672,112.9,4.926,0.524,-0.114,99.06522,-3.082,-1.663,93.2,0,109.4,13.69,-2.34,74.9
"2009-11-15 01:18:00",1417402,6.938,115.5,3.788,0.736,-14.39,99.06097,-3.093,-1.686,93.2,0,109.4,13.69,-2.35,77.5
"2009-11-15 01:18:30",1417403,7.442,117.6,3.932,0.528,-6.146,99.05389,-3.111,-1.697,93.2,0,109.4,13.68,-2.37,79.6
"2009-11-15 01:19:00",1417404,7.435,115.7,3.402,0.405,-30.14,99.04992,-3.121,-1.701,93.2,0,109.3,13.68,-2.38,77.7
"2009-11-15 01:19:30",1417405,7.171,114.4,3.413,0.677,-45.96,99.04794,-3.126,-1.706,93.3,0,109.4,13.68,-2.38,76.4
"2009-11-15 01:20:00",1417406,7.925,114.8,4.251,0.603,-22.59,99.04794,-3.126,-1.707,93.3,0,109.4,13.67,-2.38,76.8
"2009-11-15 01:20:30",1417407,7.66,113.1,3.917,0.798,2.819,99.04794,-3.126,-1.73,93.3,0,109.4,13.67,-2.38,75.1
"2009-11-15 01:21:00",1417408,7.77,109.9,4.107,0.432,1.636,99.04794,-3.126,-1.756,93.3,0,109.4,13.67,-2.38,71.9
"2009-11-15 01:21:30",1417409,7.875,108.4,4.409,0.427,4.21,99.04511,-3.133,-1.744,93.3,0,109.4,13.67,-2.39,70.4
"2009-11-15 01:22:00",1417410,8.34,111,5.838,0.466,3.84,99.02953,-3.173,-1.754,93.3,0,109.4,13.67,-2.43,73.0
"2009-11-15 01:22:30",1417411,8.11,118.8,4.565,0.587,4.251,99.01649,-3.206,-1.766,93.4,0,109.4,13.68,-2.47,80.8
"2009-11-15 01:23:00",1417412,8.05,114.2,3.619,0.595,1.773,99.01393,-3.212,-1.771,93.4,0,109.4,13.67,-2.47,76.2
"2009-11-15 01:23:30",1417413,7.834,113.1,4.301,0.655,-7.142,99.01393,-3.212,-1.779,93.4,0,109.4,13.67,-2.47,75.1
"2009-11-15 01:24:00",1417414,7.481,110.2,4.853,0.702,-38.19,99.01393,-3.212,-1.806,93.4,0,109.4,13.67,-2.47,72.2
"2009-11-15 01:24:30",1417415,8.14,114.4,3.183,0.632,-52.3,99.01393,-3.212,-1.805,93.5,0,109.4,13.67,-2.47,76.4
"2009-11-15 01:25:00",1417416,8.23,114.3,3.659,0.5,-54.04,99.01393,-3.212,-1.799,93.5,0,109.4,13.67,-2.47,76.3
"2009-11-15 01:25:30",1417417,8.1,114.6,2.301,0.721,-52.17,99.0111,-3.22,-1.822,93.5,0,109.4,13.67,-2.48,76.6
"2009-11-15 01:26:00",1417418,8.36,107.1,3.612,0.724,-40.64,98.99467,-3.262,-1.834,93.5,0,109.4,13.67,-2.52,69.1
"2009-11-15 01:26:30",1417419,8.18,114.1,3.973,0.675,-44.97,98.98418,-3.288,-1.851,93.5,0,109.4,13.68,-2.55,76.1
"2009-11-15 01:27:00",1417420,8.17,112.2,3.309,0.582,-25.24,98.97994,-3.299,-1.87,93.6,0,109.4,13.68,-2.56,74.2
"2009-11-15 01:27:30",1417421,8.29,111.6,5.26,0.815,-28.1,98.97994,-3.299,-1.876,93.6,0,109.4,13.68,-2.56,73.6
"2009-11-15 01:28:00",1417422,8.31,110.1,3.61,0.681,-5.076,98.97994,-3.299,-1.874,93.6,0,109.4,13.68,-2.56,72.1
"2009-11-15 01:28:30",1417423,8.23,110,4.707,0.518,0.314,98.97994,-3.299,-1.888,93.7,0,109.4,13.69,-2.56,72.0
"2009-11-15 01:29:00",1417424,8.35,104.7,4.679,0.519,9.17,98.97994,-3.299,-1.911,93.7,0,109.4,13.68,-2.56,66.7
"2009-11-15 01:29:30",1417425,8.51,104.2,4.207,0.56,5.405,98.97994,-3.299,-1.901,93.7,0,109.4,13.69,-2.56,66.2
"2009-11-15 01:30:00",1417426,8.26,101.3,6.283,0.634,5.693,98.97994,-3.299,-1.932,93.7,0,109.4,13.69,-2.56,63.3
"2009-11-15 01:30:30",1417427,8.67,98.6,6.453,0.522,4.707,98.97909,-3.301,-1.914,93.8,0,109.4,13.68,-2.56,60.6
"2009-11-15 01:31:00",1417428,8.75,99.1,3.612,0.517,5.62,98.97965,-3.3,-1.936,93.8,0,109.4,13.69,-2.56,61.1
"2009-11-15 01:31:30",1417429,8.66,101.9,3.724,0.627,5.878,98.97314,-3.316,-1.935,93.9,0,109.4,13.69,-2.58,63.9
"2009-11-15 01:32:00",1417430,8.31,105.8,4.412,0.662,5.721,98.96378,-3.34,-1.934,93.9,0,109.4,13.69,-2.60,67.8
"2009-11-15 01:32:30",1417431,8.54,101.3,3.698,0.616,3.254,98.95471,-3.363,-1.946,93.9,0,109.4,13.69,-2.62,63.3
"2009-11-15 01:33:00",1417432,8.45,100,5.14,0.53,3.22,98.94905,-3.378,-1.96,93.9,0,109.4,13.69,-2.64,62.0
"2009-11-15 01:33:30",1417433,8.21,95.7,4.867,0.531,2.669,98.94593,-3.386,-1.954,94,0,109.4,13.69,-2.65,57.7
"2009-11-15 01:34:00",1417434,8.42,98.7,3.275,0.7,2.332,98.94593,-3.386,-1.98,94,0,109.4,13.69,-2.65,60.7
"2009-11-15 01:34:30",1417435,8.44,101.4,4.851,0.539,2.472,98.94621,-3.385,-1.969,94,0,109.4,13.69,-2.64,63.4
"2009-11-15 01:35:00",1417436,8.69,100.2,3.652,0.349,2.499,98.9465,-3.384,-1.981,94,0,109.3,13.69,-2.64,62.2
"2009-11-15 01:35:30",1417437,8.48,100.5,4.612,0.635,2.494,98.94593,-3.386,-1.974,94.1,0,109.4,13.69,-2.65,62.5
"2009-11-15 01:36:00",1417438,9.34,96.8,5.385,0.604,2.266,98.94621,-3.385,-1.967,94.1,0,109.4,13.68,-2.64,58.8
"2009-11-15 01:36:30",1417439,9.37,99.6,5.058,0.702,2.411,98.94621,-3.385,-1.99,94.1,0,109.4,13.68,-2.64,61.6
"2009-11-15 01:37:00",1417440,8.85,97.8,8.29,0.681,2.655,98.94734,-3.382,-1.989,94.2,0,109.4,13.68,-2.64,59.8
"2009-11-15 01:37:30",1417441,9.23,91.5,4.05,0.806,2.263,98.94734,-3.382,-2.001,94.2,0,109.4,13.68,-2.64,53.5
"2009-11-15 01:38:00",1417442,9.22,93.8,4.706,0.785,2.214,98.94593,-3.386,-2.005,94.2,0,109.4,13.68,-2.65,55.8
"2009-11-15 01:38:30",1417443,9.8,96.3,3.736,0.842,2.147,98.94621,-3.385,-1.985,94.3,0,109.4,13.68,-2.64,58.3
"2009-11-15 01:39:00",1417444,8.75,96.9,3.256,1.115,2.414,98.94593,-3.386,-2.008,94.3,0,109.3,13.68,-2.65,58.9
"2009-11-15 01:39:30",1417445,8.92,91,4.658,0.643,2.249,98.94705,-3.383,-2.009,94.3,0,109.4,13.68,-2.64,53.0
"2009-11-15 01:40:00",1417446,8.47,100.9,7.18,0.76,1.935,98.94762,-3.381,-2.01,94.3,0,109.4,13.68,-2.64,62.9
"2009-11-15 01:40:30",1417447,8.26,101.1,6.809,0.904,1.994,98.94789,-3.381,-2.018,94.4,0,109.4,13.68,-2.64,63.1
"2009-11-15 01:41:00",1417448,7.851,90,2.95,0.758,2.136,98.94874,-3.379,-2.026,94.4,0,109.3,13.68,-2.64,52.0
"2009-11-15 01:41:30",1417449,8,99,5.193,0.644,2.021,98.94846,-3.379,-2.015,94.5,0,109.4,13.68,-2.64,61.0
"2009-11-15 01:42:00",1417450,8.56,101.9,4.518,0.827,1.883,98.94874,-3.379,-2.017,94.5,0,109.4,13.69,-2.64,63.9
"2009-11-15 01:42:30",1417451,8.33,104.6,7.055,0.794,1.89,98.94733,-3.382,-2.018,94.5,0,109.4,13.69,-2.64,66.6
"2009-11-15 01:43:00",1417452,8.64,98.5,4.905,0.529,2.096,98.94674,-3.384,-2.03,94.5,0,109.4,13.69,-2.64,60.5
"2009-11-15 01:43:30",1417453,8.58,105.1,4.705,0.75,1.923,98.93909,-3.403,-2.015,94.6,0,109.4,13.69,-2.66,67.1
"2009-11-15 01:44:00",1417454,8.84,104.4,6.915,0.778,1.707,98.92606,-3.436,-2.031,94.6,0,109.4,13.69,-2.70,66.4
"2009-11-15 01:44:30",1417455,8.85,98.6,6.771,0.849,1.795,98.91982,-3.452,-2.03,94.6,0,109.4,13.69,-2.71,60.6
"2009-11-15 01:45:00",1417456,9.56,97.6,3.293,0.513,1.802,98.91811,-3.457,-2.017,94.6,0,109.4,13.69,-2.72,59.6
"2009-11-15 01:45:30",1417457,9.26,93.5,6.279,0.915,1.735,98.91529,-3.464,-2.043,94.6,0,109.4,13.69,-2.72,55.5
"2009-11-15 01:46:00",1417458,9.01,104.1,5.164,0.7,2.021,98.91669,-3.46,-2.049,94.6,0,109.4,13.69,-2.72,66.1
"2009-11-15 01:46:30",1417459,8.5,103.1,4.574,0.774,1.839,98.91586,-3.462,-2.057,94.6,0,109.4,13.69,-2.72,65.1
"2009-11-15 01:47:00",1417460,9.09,100.1,3.82,0.551,1.653,98.91557,-3.463,-2.08,94.7,0,109.3,13.69,-2.72,62.1